Hourly Data Report for April 19, 2018

KUGAARUK CLIMATE
NUNAVUT
Current Station Operator: ECCC - MSC

68°32'15.060" N
89°47'47.020" W
15.80 m
2303094
71407
NBB

Download Data

Hourly Data (April 2018)
Hourly Data Report for April 19, 2018
TIME
LST
Temp Definition
°C
Dew Point Definition
°C
Rel Hum Definition
%
Precip. Amount Definition
mm

Wind Dir Definition
10's deg

Wind Spd Definition
km/h
Visibility Definition
km
Stn Press Definition
kPa
Hmdx Definition


Wind Chill Definition


Weather Definition


00:00 -6.9 -7.9 93 0.0 19 61   100.55   -18 LegendNANA
01:00 -6.7 -7.7 93 0.2 19 61   100.49   -18 LegendNANA
02:00 -6.7 -7.7 93 0.2 19 60   100.44   -18 LegendNANA
03:00 -6.1 -7.0 94 0.0 19 51   100.49   -17 LegendNANA
04:00 -5.6 -6.5 94 0.0 20 50   100.44   -16 LegendNANA
05:00 -5.2 -6.1 93 0.0 20 53   100.43   -15 LegendNANA
06:00 -4.7 -5.8 92 0.0 20 53   100.42   -15 LegendNANA
07:00 -4.7 -6.1 90 0.0 20 57   100.44   -15 LegendNANA
08:00 -4.4 -5.8 90 0.2 21 48   100.47   -14 LegendNANA
09:00 -3.5 -5.8 84 0.0 20 37   100.55   -12 LegendNANA
10:00 -3.3 -6.5 79 0.0 23 39   100.61   -12 LegendNANA
11:00 -5.1 -8.0 80 0.0 23 38   100.66   -14 LegendNANA
12:00 -4.6 -8.3 75 0.0 23 31   100.73   -13 LegendNANA
13:00 -6.5 -9.7 78 0.0 27 33   100.79   -15 LegendNANA
14:00 -8.6 -12.3 75 0.0 25 27   100.92   -17 LegendNANA
15:00 -10.4 -14.0 75 0.0 26 28   101.03   -20 LegendNANA
16:00 -11.3 -15.1 73 0.0 26 30   101.13   -21 LegendNANA
17:00 -12.5 -15.7 77 0.0 26 26   101.24   -22 LegendNANA
18:00 -13.7 -16.1 82 0.0 25 30   101.32   -24 LegendNANA
19:00 -14.7 -16.6 86 0.0 24 40   101.42   -27 LegendNANA
20:00 -16.7 -18.9 84 0.2 24 35   101.50   -29 LegendNANA
21:00 -17.7 -20.0 82 0.0 25 33   101.62   -30 LegendNANA
22:00 -18.5 -20.8 82 0.0 25 46   101.74   -33 LegendNANA
23:00 -19.0 -21.5 80 0.0 24 36   101.88   -32 LegendNANA

Notes on Data Quality.

Legend

  • E = Estimated
  • M = Missing
  • NA = Not Available*
  • [empty] = Indicates an unobserved value
Date modified: